Regional Weather Roundup
Issued by NWS

Home | Current Version | Previous Version | Graphics & Text | Print | Product List | Glossary On
Versions: 1 2 3 4 5 6 7 8 9 10 11 12 13 14 15 16 17 18 19 20 21 22 23 24 25 26 27 28 29 30 31 32 33 34 35 36 37 38 39 40 41 42 43 44 45 46 47 48 49 50
000
ASUS43 KOAX 251910
RWRNE

WEATHER ROUNDUP FOR NEBRASKA
NATIONAL WEATHER SERVICE OMAHA NE
100 PM CST SUN JAN 25 2015

NOTES: SATELLITE DATA IS BEING USED TO AUGMENT CLOUD COVER ABOVE
       12000 FEET.
       "FAIR" INDICATES FEW OR NO CLOUDS BELOW 12,000 FEET WITH NO
       SIGNIFICANT WEATHER AND/OR OBSTRUCTIONS TO VISIBILITY.

  * THESE STATIONS DO NOT REPORT WEATHER SUCH AS RAIN...SNOW OR FOG.

NEZ001>004-019>022-054>056-252000-
NEBRASKA PANHANDLE

CITY           SKY/WX    TMP DP  RH WIND       PRES   REMARKS
SCOTTSBLUFF    LGT RAIN  45  35  68 NW12      30.10F
ALLIANCE       SUNNY     45  35  68 W18       30.07F
CHADRON        PTSUNNY   47  34  60 W20       30.06F
KIMBALL        CLOUDY    48  30  49 NW15G25   30.10F
SIDNEY         MOSUNNY   50  31  48 NW20G31   30.10F
$$

NEZ057>060-069>072-079>082-252000-
SOUTHWEST NEBRASKA

CITY           SKY/WX    TMP DP  RH WIND       PRES   REMARKS
NORTH PLATTE   SUNNY     47  24  40 NW20G28   30.08F
IMPERIAL       SUNNY     52  21  29 NW24G31   30.07F
LEXINGTON      MOSUNNY   46  29  50 N20G26    30.06F
MCCOOK         SUNNY     50  21  32 NW25G32   30.09F
OGALLALA       SUNNY     51  26  38 N15       30.07F
$$

NEZ005>010-023>029-035>040-094-252000-
NORTH CENTRAL NEBRASKA

CITY           SKY/WX    TMP DP  RH WIND       PRES   REMARKS
VALENTINE      CLOUDY    40  29  64 NW10      30.06F WCI  33
AINSWORTH      CLOUDY    37  29  73 NW12      30.06S WCI  29
BROKEN BOW     PTSUNNY   43  29  57 NW18      30.06R
O`NEILL        CLOUDY    38  36  91 N13       30.05S WCI  31
ORD            CLOUDY    40  30  67 N14       30.05S WCI  32
THEDFORD       SUNNY     44  29  56 N16       30.06F
$$

NEZ041-046>049-061>064-073>077-083>087-252000-
SOUTH CENTRAL NEBRASKA

CITY           SKY/WX    TMP DP  RH WIND       PRES   REMARKS
GRAND ISLAND   CLOUDY    39  32  76 N14       30.05R WCI  31
AURORA         CLOUDY    39  32  75 N23       30.04S WCI  29
HASTINGS       CLOUDY    42  29  59 N23G31    30.04R
HEBRON         CLOUDY    42  28  57 N23G32    30.02R
HOLDREGE       MOSUNNY   46  26  47 N17G25    30.06S
KEARNEY *      CLOUDY    45  27  49 N23       30.06R
YORK           CLOUDY    39  32  75 N12       30.03R WCI  32
$$

NEZ011>018-030>034-042>045-252000-
NORTHEAST NEBRASKA

CITY           SKY/WX    TMP DP  RH WIND       PRES   REMARKS
NORFOLK        CLOUDY    37  32  82 N14       30.03R WCI  28
ALBION         CLOUDY    38  31  74 N14       30.05R WCI  30
BLAIR          CLOUDY    39  32  77 NW14G20   29.98R WCI  31
COLUMBUS *     CLOUDY    37  28  70 N15G22    30.04S WCI  28
FREMONT        CLOUDY    40  33  76 N15G21    30.01R WCI  31
TEKAMAH        CLOUDY    41  34  76 N22       30.01R
WAYNE          CLOUDY    34  33  96 NW12      30.03S FOG     WCI  26
$$

NEZ050>053-065>068-078-088>093-252000-
SOUTHEAST NEBRASKA

CITY           SKY/WX    TMP DP  RH WIND       PRES   REMARKS
LINCOLN        CLOUDY    39  31  72 N22G29    30.02R WCI  29
OMAHA EPPLEY   CLOUDY    40  33  76 N20       29.98R WCI  30
BEATRICE       CLOUDY    41  32  70 N25       30.00R
FALLS CITY     CLOUDY    38  32  79 N17G26    29.93R WCI  28
NEBRASKA CITY  CLOUDY    38  31  77 N18       29.96R WCI  28
PLATTSMOUTH    CLOUDY    38  32  78 N12       29.97R WCI  31
$$

NEZ044-045-051>053-067-252000-
OMAHA AREA

CITY           SKY/WX    TMP DP  RH WIND       PRES   REMARKS
OMAHA EPPLEY   CLOUDY    40  33  76 N20       29.98R WCI  30
BLAIR          CLOUDY    39  32  77 NW14G20   29.98R WCI  31
FREMONT        CLOUDY    40  33  76 N15G21    30.01R WCI  31
MILLARD        CLOUDY    40  33  75 N12G18    29.99R WCI  33
OFFUTT AFB     CLOUDY    40  32  75 N14G24    29.97R WCI  32
PLATTSMOUTH    CLOUDY    38  32  78 N12       29.97R WCI  31
WAHOO          CLOUDY    39  31  75 N16G22    30.01R WCI  30
$$



USA.gov is the U.S. government's official web portal to all federal, state and local government web resources and services.